CAPE
112 47 51 46 58 51 83 94 93 72 372 608 852 1042 1471 1732 1971 2184 2254 2481 2634 2774 2681 2545 2645 2482 3031 3045 2952 3134 3112 2977 3542 2521 2462 2780 2464 2552 2671 2836 2310 2277 2614 2253 2296 2180 2210 2313 2149 2795 3037 2696 2991 3400 3364 4032 3737 3684 3734 4154 4395 4329 4187
135 28 35 56 31 24 75 71 112 160 414 432 903 1152 1474 1557 1954 2072 2337 2497 2669 2754 2741 2601 2696 2516 2767 3144 2939 3124 2973 2582 3522 3320 2945 2853 3506 2316 2587 2785 2353 2265 2363 2469 2380 2322 1906 2668 2336 2527 2668 2840 2998 3410 3409 3323 3205 3037 3309 3780 3172 3898 4600
186 7 10 44 11 24 54 59 181 208 241 306 691 1066 1190 1422 1582 1973 2305 2514 2806 2908 2818 2652 2585 2505 2706 3101 2834 2750 2922 2632 3146 3101 3110 3135 3144 2875 2485 2592 2416 2655 2317 2326 2164 2641 2087 2412 2061 2289 2340 2689 2844 2963 3100 3007 3368 3220 3122 2784 3694 3853 4196
361 81 0 3 1 24 58 60 227 197 204 265 343 446 1017 1487 1532 1907 2304 2428 2799 2945 2770 2674 2583 2597 2676 3098 2721 2636 2512 2563 2767 2774 2791 2739 2353 2681 2357 2750 2276 2382 2479 2731 2447 2438 2207 2340 2964 2639 3113 2106 2555 2806 3115 2991 3106 3262 3402 2814 3035 3553 3155
450 422 19 0 0 25 38 47 129 125 165 252 263 464 1079 1448 1571 2009 2202 2352 2619 2773 2656 2667 2656 2651 2601 2998 2890 2763 2702 2312 2387 2398 2300 2222 1885 2206 2208 2435 2114 2064 2388 2609 2646 2368 2150 2228 2288 2904 2787 1933 3055 2688 2897 2960 2677 2802 2864 3099 3135 3440 3258
546 577 194 0 0 52 12 24 68 86 151 177 363 456 1137 1335 1600 2034 2095 2297 2468 2634 2628 2593 2466 2486 2533 2746 2565 2529 2962 2820 2140 2134 2021 1755 1989 2033 2018 1945 1854 1837 1941 1921 2322 2282 2442 2162 1734 2779 2357 2666 2704 2257 2919 2930 2477 2782 2926 2913 2919 3246 3216
612 410 596 15 0 69 14 4 13 65 141 161 465 529 1017 1100 1481 1940 1971 2068 2274 2432 2486 2436 2198 2079 2407 2405 2158 2250 2648 2843 2480 2259 1836 1792 2187 1909 1756 1796 1845 1627 1552 1620 2032 1986 2279 1914 1785 2383 1902 2065 1991 2035 2356 2371 2442 2660 2945 2761 2692 2849 3274
608 510 267 456 7 81 38 17 0 12 159 149 272 438 810 850 1434 1635 1780 2044 2250 2321 2363 2368 2317 2252 2325 2280 2201 2160 2327 2443 2501 2597 2032 1794 1933 1768 1268 1485 1420 1540 1540 1303 1560 2000 2398 2350 2109 1909 1892 1831 1544 1852 1821 2214 2264 2551 2614 2463 2821 2793 3029
693 570 194 264 269 44 46 27 0 0 90 159 244 413 524 371 719 1345 1577 1859 2082 2185 2105 2226 2277 2142 2222 2200 2141 1929 2082 2199 2358 2414 2276 1824 1457 1828 1676 1413 1851 1266 1793 1306 1558 1548 2522 2346 2258 1992 1782 1719 1588 1485 2349 2177 2459 2520 2763 2657 2996 2819 2704
740 546 165 96 506 98 8 14 0 0 4 211 337 278 346 396 340 836 1361 1720 1777 1946 1967 1950 1848 1839 1957 1924 1942 1758 1810 1787 2068 2227 2270 1931 1710 1736 1573 1485 1826 2007 1910 1302 1741 1413 2386 2143 1910 1856 2084 1803 1922 2532 2958 3198 2985 3113 2876 2848 3120 3039 2820
1066 1303 486 95 388 331 274 90 8 9 66 200 369 372 334 381 468 529 961 1515 1478 1552 1519 1471 1350 1644 1800 1813 1619 1747 1589 1698 1730 1921 2103 1889 1848 1760 1604 1496 1579 1591 1756 1418 1623 1767 1974 1616 2165 2418 2206 2259 3087 3234 3215 3117 3456 3172 2893 3145 3612 3570 3556
682 765 1390 1561 866 438 224 221 456 275 167 486 446 433 344 302 362 293 652 1109 1152 1240 1204 1068 1083 1420 1550 1544 1474 1389 1421 1573 1660 1704 1795 1748 1723 1679 1598 1660 1570 1544 1644 1546 1370 1636 1882 1785 1543 2990 2267 2097 2967 3248 3418 3330 3544 3396 2989 2774 3057 3488 3178
781 727 933 1144 2221 1394 237 188 623 686 815 1963 1075 245 323 362 483 305 857 833 914 966 958 1014 1242 1191 1281 1320 1146 931 888 1281 1437 1478 1432 1419 1418 1496 1568 1728 1681 1548 1618 1505 1396 1216 1548 1732 1616 2517 2581 2424 2928 3135 3353 3337 3423 3305 3007 2898 2755 2756 2863
1064 930 848 928 1909 1843 1072 176 674 709 504 980 1873 1529 376 439 1887 1330 750 639 880 823 805 1678 1340 1076 1174 1246 1386 813 1000 1080 1126 1095 1040 1165 1186 1178 1348 1316 1454 1489 1582 1603 1596 1464 1412 1257 1885 1936 2505 2434 2503 2814 3414 3377 3263 3323 3383 3018 2656 3269 2955
1144 877 745 828 1525 1698 1371 1297 692 684 490 488 1640 1758 1422 1794 2544 1425 906 879 1230 1049 956 1639 1546 1215 1206 1057 1400 1502 1246 1660 1300 677 615 972 786 754 955 1190 1416 1422 1539 1640 1595 1604 1457 1312 1427 1987 2364 2703 2452 2416 2802 3391 3487 3967 3933 3815 3543 3605 3079
1105 1002 871 1162 1178 1259 1398 1329 750 600 972 2161 2882 2954 2430 1626 2709 1606 1274 1394 1396 1344 1132 2071 1830 1669 1429 1124 1209 1775 1604 1773 1753 1600 1501 2218 916 520 339 1027 1096 1377 1531 1513 1606 1634 1506 1271 1210 1346 2101 2549 2502 2459 2410 2942 3448 3906 3899 4109 4149 3599 3364
1190 898 816 852 998 1087 1218 1364 1122 969 1034 1833 2018 2540 2369 2197 2743 3135 3458 3531 3510 3474 2690 2376 2578 2175 1881 2892 2453 2114 1851 1560 1369 1278 1118 1364 1563 2312 1138 781 1176 1273 1347 1446 1568 1521 1453 1424 1271 1176 1216 1762 2439 2428 2248 2227 2666 2723 2750 2972 3520 3878 3590
1154 1238 1020 1063 1233 1271 1183 1401 1268 1114 1066 1531 2378 2367 1881 1896 2504 2772 2946 3504 3680 4053 3843 3138 2295 2251 2295 2370 2105 1899 1778 1404 1229 1047 904 898 1646 1996 2280 3398 3050 2517 2420 1639 1404 1383 1214 1368 1190 1052 1098 1391 2117 2196 2066 2001 1964 2082 2235 2282 2599 3192 3429
531 768 954 1220 1517 1498 1300 1386 1447 1452 1478 1390 2012 2209 2063 1769 1798 2106 2504 3184 3633 3374 3293 2543 1798 1883 2171 2443 2378 2024 1805 1614 1356 1119 900 820 1133 1871 2102 2197 2796 2765 2632 2238 1750 1093 923 973 972 970 986 1135 1447 1933 1923 1818 1712 1623 1506 1497 1696 2350 2786
797 760 640 922 1116 1352 1401 1345 1379 1352 1516 1638 1928 1859 1764 2060 1872 2060 2443 2541 2816 2567 2704 3067 2689 2390 1922 2019 2534 2396 2087 1709 1423 1197 1004 954 937 1562 1781 1876 2169 2107 1965 1934 1626 868 612 663 837 870 915 849 1154 1508 1702 1711 1520 1284 1184 1323 1458 1714 1970
650 516 551 574 773 853 1093 1127 1209 1233 1296 1421 1731 1788 1599 1626 1661 1830 2036 2180 2124 2328 2528 2375 2245 2489 2407 1914 1969 2357 2507 2253 1842 1661 1243 1130 982 1057 1620 1769 1873 1871 1896 1889 1687 1609 1121 778 847 767 778 896 863 1153 1378 1520 1440 1124 1042 1072 1081 1219 1425
634 666 546 588 877 998 852 741 850 876 966 1252 1694 1530 1250 1325 1408 1492 1654 1830 1922 2004 1985 1942 2022 1993 2090 2258 2261 2184 2189 2476 2415 2230 2023 1569 1473 1305 1590 1801 1859 1895 1898 1868 1748 1672 1466 1014 975 782 715 741 838 869 781 754 758 891 980 1027 1070 1170 1536
519 291 260 661 773 797 708 471 510 452 686 910 1304 1155 1069 1175 1163 1116 1229 1440 1647 1722 1817 1821 1735 1679 1706 1903 1912 1865 1872 1939 2269 2410 2389 2164 1957 1696 1787 1957 1908 2328 2019 1925 1993 2093 1971 1541 1055 799 729 672 677 815 891 789 747 840 919 956 1046 1780 2526
514 440 201 292 326 314 345 517 484 491 532 959 1136 1036 1078 1171 1252 1294 1162 1263 1340 1442 1514 1508 1493 1725 1762 1629 1727 1608 1388 1508 1997 2363 2343 2277 2044 1862 1800 2147 2044 2064 2074 2068 2101 2304 2125 1701 1442 1210 1008 849 748 702 767 801 1014 1082 1053 1026 994 1353 1863
543 574 451 363 314 368 332 328 303 368 398 813 978 843 698 720 858 910 907 980 1129 1206 1127 1145 1163 1258 1348 1424 1463 1525 1368 1254 1674 2126 2195 2145 2056 1944 1858 1965 1993 2035 2148 2169 1833 1621 1602 1629 1329 1337 1288 1211 1049 810 702 655 765 1042 1259 1339 1325 1508 2141
571 689 562 378 343 319 262 298 252 210 358 663 784 607 588 565 577 522 606 725 805 860 851 843 846 723 982 1113 1124 1203 1247 1305 1370 1698 1938 2098 2109 1963 1775 1671 1640 1839 1837 1928 1752 1550 1488 1655 1580 1485 1435 1430 1366 1128 920 802 764 790 923 1033 1057 1180 1679
292 254 524 435 325 300 281 304 293 249 296 419 733 758 599 497 564 570 522 564 609 586 600 568 557 520 644 781 876 1074 1417 1292 1418 1510 1612 1571 1584 1491 1295 1260 1343 1312 1199 1347 1447 1494 1484 1445 1398 1242 1197 1262 1310 1275 1134 1046 928 815 781 855 860 883 1072
234 228 142 363 249 199 200 181 212 230 232 239 390 405 392 477 464 483 397 410 236 377 422 416 435 562 613 734 689 786 927 1117 1359 1430 1397 1399 1361 1276 1188 1112 1114 1111 1121 1176 1208 1167 1140 1038 861 682 563 596 696 793 768 761 726 630 673 709 737 642 616
161 142 60 0 0 3 3 61 27 50 113 151 187 276 341 290 353 368 410 328 237 306 469 484 449 456 517 496 605 662 674 802 870 1032 1148 1311 1202 998 883 829 838 934 866 905 924 839 802 686 670 577 506 448 423 386 394 443 453 484 467 508 632 597 453
224 130 130 0 0 0 0 0 12 31 48 98 161 155 136 239 310 332 325 313 305 386 438 465 469 428 448 512 574 545 544 563 636 657 727 834 952 978 748 583 608 695 677 620 624 596 500 501 375 450 438 393 356 290 272 184 219 240 296 356 434 584 479
150 116 130 91 0 0 0 0 1 17 29 31 41 82 159 116 269 251 206 203 213 231 204 301 315 319 366 430 455 466 474 448 474 542 525 565 608 641 547 509 560 432 485 460 418 391 375 358 416 428 409 364 300 268 264 296 305 103 212 446 510 549 474
184 129 174 41 0 0 0 0 0 9 17 0 0 2 29 124 114 167 186 157 127 179 196 224 240 346 341 326 331 380 378 386 433 459 513 515 501 543 537 494 468 460 430 345 294 323 332 333 340 354 362 296 208 69 7 67 199 280 190 156 338 343 390
275 256 67 0 0 0 0 0 0 0 0 0 0 0 0 96 84 98 75 79 102 136 160 158 135 127 178 271 248 274 296 354 371 383 416 452 485 513 540 525 383 409 376 338 294 264 268 276 265 231 227 188 138 4 0 30 162 273 227 251 278 305 288
99 45 65 125 72 9 0 0 0 0 0 0 0 0 0 0 0 0 58 38 14 19 43 178 109 20 0 68 83 128 198 210 216 228 312 322 390 397 393 364 284 308 288 255 309 323 359 324 146 120 0 0 2 118 0 123 211 243 234 220 214 224 195
112 57 38 2 0 0 0 0 0 0 0 0 0 0 0 0 0 0 4 3 13 45 55 150 92 2 4 6 3 0 2 66 99 132 180 209 234 247 215 196 216 205 126 1 54 258 256 8 1 4 13 0 163 0 0 0 0 7 0 0 0 0 0
160 86 44 5 0 0 3 15 0 0 0 0 0 0 0 0 0 0 0 0 1 1 0 55 120 0 0 3 8 11 1 0 22 95 148 162 169 157 62 0 0 0 0 6 0 4 72 0 0 0 0 0 0 0 0 0 0 0 0 0 0 0 0
161 162 147 113 86 63 34 23 14 5 0 0 2 1 0 0 0 0 0 0 0 0 0 0 4 10 8 14 21 9 6 0 32 49 11 0 0 0 72 7 0 0 0 0 0 0 0 0 0 0 0 2 0 0 0 0 0 0 0 0 0 0 0
198 162 117 129 113 104 63 32 20 11 0 2 24 3 0 0 0 0 0 1 4 4 2 0 4 8 1 4 12 10 15 0 24 42 0 0 0 0 0 31 0 0 0 0 0 0 0 0 0 0 0 0 0 0 0 0 0 0 0 0 0 0 0
Wind_Speed
12 nan nan nan nan nan nan nan nan nan 10 9 8 7 6 6 7 7 8 7 4 3 2 1 1 2 2 3 3 3 1 2 3 2 2 2 3 3 4 5 5 5 5 6 8 8 9 9 8 8 9 8 9 9 9 10 9 8 8 8 6 5 4
12 nan nan nan nan nan nan nan 11 12 12 10 9 8 7 7 8 7 8 7 5 3 3 2 1 1 1 2 3 3 1 2 2 2 3 3 4 3 3 4 4 5 5 5 5 7 7 8 6 6 7 8 8 7 7 8 7 7 6 5 4 4 3
11 nan nan nan nan nan nan nan 12 13 14 12 10 10 8 9 8 8 9 8 6 4 4 4 3 3 2 1 2 2 3 1 1 1 2 2 3 2 3 5 4 5 5 4 4 5 6 5 5 4 5 5 4 5 5 6 6 6 4 3 2 1 0
9 nan nan nan nan nan nan nan 14 15 15 13 10 10 11 11 9 9 9 9 8 6 4 4 4 4 3 3 2 1 2 2 1 0 1 3 2 4 3 6 4 5 5 4 3 3 3 3 2 1 2 2 2 2 3 4 5 4 3 2 1 2 2
8 13 nan nan nan nan nan nan 15 15 16 14 11 11 13 12 10 10 9 9 9 7 5 5 4 4 5 4 4 3 1 1 2 1 1 2 2 4 3 5 4 5 6 5 5 4 5 3 4 4 3 2 4 2 2 2 2 2 4 3 4 4 3
5 11 14 nan nan nan nan nan nan nan 16 15 13 12 15 12 11 10 10 10 10 9 7 7 5 5 5 4 4 4 4 3 3 2 3 4 3 3 3 3 3 3 4 4 4 5 5 5 4 5 5 4 5 3 4 4 4 3 5 6 5 5 5
4 9 13 nan nan nan nan nan nan nan 16 16 16 15 16 13 11 11 11 10 10 9 8 8 7 6 7 6 4 5 4 4 5 3 4 3 3 2 3 4 3 3 4 5 5 6 6 6 5 6 5 5 6 5 6 5 6 6 8 8 7 5 7
8 8 9 11 nan nan nan nan nan nan 17 17 17 16 16 14 14 12 11 11 11 10 8 8 7 9 10 9 7 7 6 5 5 5 7 4 4 5 4 3 4 2 6 5 6 8 7 7 6 6 5 6 5 6 7 8 7 8 9 9 8 6 7
14 12 10 9 13 nan nan nan nan nan nan 18 18 18 16 15 15 14 12 13 11 11 9 9 9 10 10 11 10 10 8 8 7 6 7 7 5 4 5 3 4 4 7 7 8 7 7 5 6 7 7 6 6 5 8 8 8 9 10 10 10 9 7
15 17 15 nan 16 nan nan nan nan nan nan 20 21 19 17 16 16 15 15 14 13 12 10 10 11 11 10 11 10 11 11 10 10 8 7 7 7 4 7 7 7 7 8 7 9 8 8 7 7 9 8 8 8 10 12 12 11 11 11 11 10 10 8
18 21 20 nan 18 20 18 nan nan nan nan 21 21 20 18 17 16 15 16 15 14 12 11 10 12 12 10 11 10 12 12 10 11 10 9 8 9 6 8 9 10 9 8 10 11 10 11 10 10 11 10 10 11 13 13 13 12 11 10 10 11 11 10
30 32 29 26 23 22 19 16 16 16 18 20 19 20 19 18 17 16 16 15 15 14 12 12 14 13 11 11 11 11 11 11 12 11 11 10 11 9 10 11 11 11 10 11 10 13 12 11 10 12 11 11 13 13 13 13 13 11 10 11 12 13 12
29 32 33 31 29 25 21 20 17 16 17 20 18 17 19 20 19 19 17 15 16 15 13 15 16 15 13 11 11 11 11 12 12 13 12 11 11 12 13 13 12 13 11 13 14 14 14 13 12 13 12 12 13 13 13 12 12 12 11 11 14 15 14
22 20 13 16 23 26 23 21 22 20 19 21 21 20 18 19 22 21 19 17 17 17 16 17 17 17 15 14 14 13 15 15 14 13 13 12 11 12 14 15 14 14 13 16 17 16 15 14 16 14 14 13 14 13 14 13 12 13 13 13 14 15 16
19 17 18 23 27 26 29 32 31 31 26 22 22 21 20 20 22 24 22 21 20 19 18 18 18 18 18 17 18 18 19 21 18 16 15 14 12 11 14 15 14 14 15 16 18 18 17 17 18 17 16 16 15 15 15 15 14 16 16 16 15 18 17
23 23 26 29 30 30 31 32 31 36 39 33 29 27 26 25 25 24 24 23 23 22 21 21 20 20 21 21 21 23 23 24 23 21 19 18 15 12 16 17 15 15 15 17 18 19 19 19 19 20 18 18 17 16 16 18 19 20 19 17 17 18 17
22 26 28 30 29 29 33 36 36 33 35 37 39 39 36 34 34 31 29 30 29 28 26 26 26 28 29 31 31 29 28 25 23 23 24 23 26 25 20 20 18 18 17 18 19 20 20 20 20 19 19 19 20 18 21 24 23 23 22 23 21 19 19
23 26 28 30 29 29 29 29 28 30 29 30 30 33 33 33 32 31 30 30 31 31 35 37 41 40 38 34 31 28 26 24 22 23 23 25 26 26 25 25 26 25 24 23 20 20 21 21 21 20 19 18 19 23 27 26 27 26 26 26 25 22 21
19 20 27 26 23 23 21 23 26 28 33 34 31 31 30 30 31 27 25 28 30 38 43 42 41 37 32 28 24 21 21 22 21 22 22 25 25 25 27 27 28 29 32 32 29 30 31 33 33 30 27 28 28 27 27 26 27 27 28 27 27 26 23
20 19 22 26 23 21 22 26 27 29 31 32 33 31 30 33 34 34 35 37 41 43 39 36 33 31 26 23 20 20 21 23 24 23 25 27 25 25 28 29 30 31 32 31 29 29 31 33 33 30 30 29 29 29 28 28 27 26 26 27 28 27 26
26 29 33 35 38 39 37 29 28 29 33 34 34 32 33 35 33 33 36 38 40 37 32 24 29 34 32 26 21 21 21 23 25 24 25 26 25 25 27 29 31 33 33 32 31 32 32 31 30 30 31 30 28 28 28 27 28 25 26 27 28 28 28
32 37 42 43 43 42 41 39 37 36 35 31 33 35 34 34 33 34 36 38 38 36 34 32 33 33 29 23 18 18 20 23 24 24 24 24 23 22 23 28 33 35 33 32 32 32 33 33 32 31 31 30 30 29 29 27 28 27 26 27 28 28 29
37 38 32 30 33 33 33 36 36 37 35 34 36 39 38 35 35 36 37 36 36 35 35 35 35 34 27 18 18 18 21 25 24 22 23 22 22 20 21 26 31 34 31 33 32 33 33 34 35 34 34 33 32 33 31 28 28 28 27 27 29 31 32
39 38 29 20 21 27 33 33 29 28 32 36 38 37 34 34 39 42 43 41 37 34 35 35 34 28 24 21 19 20 24 23 17 18 19 18 20 22 23 25 28 30 30 32 32 33 32 35 38 38 36 35 34 33 32 30 30 30 29 31 32 34 35
37 43 41 27 18 22 30 32 29 26 30 36 40 41 41 37 39 43 43 41 39 37 37 34 32 33 30 22 23 27 26 22 16 15 16 18 23 25 26 27 28 28 28 25 27 31 31 32 36 37 37 37 37 39 36 32 31 33 32 36 37 37 37
36 41 45 43 35 32 32 32 33 31 29 34 37 36 38 38 40 43 43 43 41 42 41 39 35 34 33 23 22 28 29 28 24 21 20 22 25 28 29 28 29 28 26 25 28 29 29 28 31 35 35 37 37 36 35 35 34 34 38 40 42 40 39
40 43 45 43 40 38 39 41 42 36 29 29 34 34 34 36 37 40 41 42 45 45 43 43 44 44 41 29 27 30 32 30 29 26 26 27 29 30 31 31 32 30 29 31 32 32 31 30 30 32 33 33 33 34 36 37 37 37 42 44 45 44 41
41 43 41 39 38 36 39 43 46 46 44 41 37 34 35 37 38 38 38 39 43 43 43 47 47 48 49 44 42 40 36 35 32 29 28 28 30 32 33 32 33 33 34 34 33 33 31 29 29 31 30 29 29 30 32 35 38 35 39 44 46 45 42
41 43 nan nan nan nan nan nan nan nan 48 46 43 39 37 38 39 38 36 40 42 42 44 47 47 49 51 48 45 43 40 38 36 31 30 31 32 34 33 33 35 36 35 34 33 33 33 33 32 32 31 30 30 29 29 28 30 32 32 34 37 39 39
42 44 45 nan nan nan nan nan nan nan nan nan 43 43 41 40 40 40 39 39 38 41 44 46 47 50 51 48 45 44 43 42 41 38 35 34 34 35 36 36 35 35 34 34 34 35 36 35 35 35 34 33 32 31 29 26 28 29 30 29 33 35 35
44 45 45 nan nan nan nan nan nan nan nan nan nan nan 42 41 41 40 41 38 38 38 41 44 47 48 49 48 47 45 42 41 40 39 39 37 36 37 37 36 35 36 34 34 34 34 35 33 32 33 32 31 30 29 28 27 28 27 28 32 34 35 35
43 43 43 nan nan nan nan nan nan nan nan nan nan nan nan 42 41 42 41 41 42 40 41 42 44 46 48 49 50 49 48 47 46 44 42 40 38 38 37 36 34 34 33 34 34 34 34 32 32 31 31 31 30 nan nan nan 34 33 31 31 35 35 39
42 43 nan nan nan nan nan nan nan nan nan nan nan nan nan nan nan nan nan nan 44 44 44 44 44 46 47 49 50 50 50 50 46 46 45 43 42 41 41 40 39 37 36 34 35 35 35 35 35 34 33 33 33 nan nan nan 35 34 32 32 34 35 34
nan nan nan 42 nan nan nan nan nan nan nan nan nan nan nan nan nan nan nan nan nan nan nan 47 46 nan nan nan nan 49 51 52 56 52 47 45 43 42 42 43 42 41 38 35 35 37 37 36 36 35 nan nan nan 34 nan 33 33 32 31 31 32 31 29
38 nan nan nan nan nan nan nan nan nan nan nan nan nan nan nan nan nan nan nan nan nan nan 49 nan nan nan nan nan nan nan nan nan 50 50 49 48 45 43 41 41 42 40 nan nan 37 37 nan nan nan nan nan 33 nan nan nan nan nan nan nan nan nan nan
39 nan nan nan nan nan nan nan nan nan nan nan nan nan nan nan nan nan nan nan nan nan nan nan 49 nan nan nan nan nan nan nan nan nan 52 52 50 49 nan nan nan nan nan nan nan nan nan nan nan nan nan nan nan nan nan nan nan nan nan nan nan nan nan
40 40 41 39 nan nan nan nan nan nan nan nan nan nan nan nan nan nan nan nan nan nan nan nan nan nan nan nan nan nan nan nan nan nan nan nan nan nan nan nan nan nan nan nan nan nan nan nan nan nan nan nan nan nan nan nan nan nan nan nan nan nan nan
41 41 41 41 40 40 nan nan nan nan nan nan nan nan nan nan nan nan nan nan nan nan nan nan nan nan nan nan nan nan nan nan nan nan nan nan nan nan nan nan nan nan nan nan nan nan nan nan nan nan nan nan nan nan nan nan nan nan nan nan nan nan nan
Wind_Direction
194 nan nan nan nan nan nan nan nan nan 262 266 270 276 259 252 251 248 261 260 260 243 231 148 51 89 88 114 118 131 117 141 182 228 212 174 143 125 108 111 99 95 89 83 85 87 93 100 104 104 118 118 126 131 132 134 139 135 134 138 146 151 115
190 nan nan nan nan nan nan nan 252 269 267 265 263 277 249 251 250 250 261 266 265 268 257 243 215 177 76 111 135 143 122 84 176 193 200 178 181 169 156 136 118 105 112 93 91 96 93 101 92 102 110 114 124 132 132 140 142 142 150 149 156 139 138
196 nan nan nan nan nan nan nan 249 265 270 263 263 271 263 250 258 260 263 268 268 251 230 250 229 214 201 191 167 135 133 118 174 248 197 206 205 229 179 172 140 136 117 119 111 111 101 105 91 100 89 105 123 136 147 145 140 141 156 166 188 134 143
209 nan nan nan nan nan nan nan 251 257 267 268 264 252 264 261 263 258 263 275 274 261 259 248 243 233 218 216 216 173 123 138 129 179 228 225 234 221 205 186 164 158 166 154 138 140 137 163 185 112 78 126 166 148 167 152 149 151 189 223 221 262 302
222 217 nan nan nan nan nan nan 255 256 260 266 266 245 264 261 259 255 256 271 269 271 271 264 249 234 223 218 209 198 187 118 135 185 193 240 257 229 224 197 199 182 188 194 189 182 187 194 202 204 207 196 214 217 256 228 203 198 220 252 257 256 296
230 231 227 nan nan nan nan nan nan nan 264 267 263 257 260 266 255 264 259 265 262 261 253 249 249 243 241 239 213 226 218 199 190 210 198 231 259 252 257 224 238 201 225 212 214 205 200 215 212 209 216 216 239 247 245 245 256 265 255 262 274 271 300
255 242 235 nan nan nan nan nan nan nan 265 266 251 251 261 261 262 260 253 260 263 269 269 262 253 253 245 245 229 240 257 233 227 226 225 249 232 254 273 259 254 225 253 228 250 231 238 236 233 222 226 219 235 266 252 260 250 268 264 275 277 283 277
251 250 236 237 nan nan nan nan nan nan 269 271 261 258 264 261 261 262 252 251 255 258 260 266 253 251 248 249 242 246 264 254 252 227 232 273 249 224 263 243 265 259 260 255 255 249 251 234 242 238 248 229 233 242 270 275 275 273 279 282 280 279 284
240 243 251 235 246 nan nan nan nan nan nan 277 275 266 264 255 254 261 260 257 248 255 255 259 251 252 248 248 246 242 257 249 255 246 237 263 254 242 263 271 255 265 266 268 265 258 269 256 243 264 267 259 259 253 256 274 273 269 280 286 288 292 286
240 234 236 nan 240 nan nan nan nan nan nan 267 271 268 262 256 254 256 257 262 252 258 261 261 248 254 252 244 252 245 256 248 248 255 246 252 256 256 253 266 257 254 250 271 276 280 275 284 264 268 268 267 272 264 265 266 264 264 268 285 287 287 289
228 226 227 nan 230 232 235 nan nan nan nan 253 260 266 263 255 257 256 256 266 259 258 259 253 249 258 256 245 253 244 257 252 255 252 246 246 246 256 253 250 256 258 247 256 254 267 276 285 268 272 275 273 269 269 272 274 270 269 269 274 278 281 278
213 209 210 212 213 221 220 236 246 254 245 236 245 260 262 252 255 253 253 273 268 264 253 244 250 260 259 250 251 244 245 246 245 255 254 249 243 256 250 260 251 258 253 254 266 257 266 278 268 272 279 271 271 268 272 276 279 280 279 277 283 283 279
234 217 197 192 204 208 212 215 229 230 228 226 226 245 257 250 248 247 252 261 263 266 261 244 254 257 256 252 255 250 244 245 240 238 246 249 242 251 248 259 261 258 258 254 262 259 258 265 268 271 279 273 271 275 273 275 282 283 282 277 278 285 284
251 258 246 216 212 213 216 213 218 219 220 217 225 222 235 249 242 242 247 256 251 261 257 244 256 260 254 248 246 249 243 242 245 239 238 243 237 242 258 256 257 257 259 255 260 261 260 255 263 268 269 271 267 268 270 272 270 270 272 274 272 275 281
244 250 240 228 224 226 225 220 212 210 210 220 219 229 225 224 232 235 234 238 244 254 253 246 251 257 255 248 242 242 239 238 241 245 243 246 253 242 252 269 268 265 266 264 265 266 263 256 258 266 262 262 266 262 267 271 268 263 264 266 266 269 270
242 241 236 228 226 226 227 228 231 223 208 209 220 225 231 226 208 227 232 231 236 243 242 242 244 247 245 242 239 238 239 238 235 235 239 243 252 268 262 264 267 272 270 271 271 267 267 265 261 262 265 265 269 267 269 267 262 254 257 260 265 267 265
225 227 229 229 226 230 232 227 220 224 228 214 211 225 229 225 216 210 218 223 226 229 233 236 238 237 234 230 227 230 235 241 242 241 242 242 238 235 240 258 274 267 263 264 267 267 269 274 271 266 265 271 274 277 267 257 253 244 252 255 253 261 273
212 214 221 224 226 231 238 241 234 219 225 229 220 225 232 237 234 224 215 217 226 230 230 229 228 228 233 231 229 233 237 236 240 250 249 246 243 244 240 247 255 258 254 253 257 258 258 268 268 265 263 268 277 267 260 261 248 248 246 246 249 253 263
226 218 206 211 218 227 224 229 227 223 213 215 218 217 219 233 242 237 233 230 228 235 238 237 239 236 230 235 235 236 246 252 249 248 249 250 253 252 249 246 249 252 252 248 247 253 254 254 254 254 253 250 252 254 255 257 247 247 249 251 251 250 256
232 233 230 222 220 225 225 224 222 222 222 221 220 225 223 216 219 220 223 229 234 239 235 241 249 251 247 242 240 239 242 246 246 247 248 248 249 250 251 251 251 247 248 250 247 249 252 253 256 258 257 258 258 257 256 255 247 246 250 255 255 254 256
235 247 242 243 241 238 239 242 236 225 233 230 223 222 218 217 221 224 223 225 236 245 254 253 253 252 249 243 235 236 241 242 244 244 244 248 248 248 249 248 249 251 250 250 249 250 253 256 256 256 261 261 260 258 257 253 245 247 251 255 260 262 264
217 241 248 241 242 241 240 235 235 238 240 232 215 217 219 222 217 218 218 222 230 233 237 241 248 251 251 253 248 241 239 244 243 240 243 247 255 261 259 251 250 254 254 253 251 251 252 252 254 255 259 263 263 260 256 253 246 248 250 256 260 268 270
222 233 236 231 232 239 237 235 230 228 222 216 208 211 219 220 220 218 216 221 230 236 239 240 242 245 250 248 247 244 242 245 249 251 251 252 258 267 264 255 251 254 256 256 252 250 250 254 255 256 257 256 256 258 255 252 246 248 253 260 264 269 271
221 229 233 218 215 223 229 230 228 237 233 225 220 217 215 215 224 225 223 224 231 236 241 245 244 243 245 245 248 246 250 255 260 264 264 260 259 256 256 255 258 258 257 257 256 253 252 253 256 256 255 254 254 255 257 255 248 248 255 264 269 274 274
223 227 235 243 233 225 232 233 226 232 237 226 219 215 215 218 224 226 227 227 229 232 235 240 257 250 245 241 245 250 259 265 263 262 265 261 254 256 260 265 264 264 263 267 266 265 263 261 261 260 257 256 257 258 259 259 255 249 252 260 267 272 274
225 225 236 248 247 240 233 226 225 227 224 218 220 223 226 225 228 226 227 229 232 235 237 236 245 264 258 249 246 246 248 245 247 246 251 260 260 256 256 265 269 273 276 272 265 267 265 263 261 260 258 258 259 259 259 259 257 255 254 256 257 264 273
231 231 234 244 250 246 239 228 223 230 234 227 227 229 230 235 235 232 229 229 231 233 236 241 244 252 267 264 249 248 251 248 248 248 249 254 257 258 260 264 272 276 275 271 268 268 266 265 263 259 259 258 259 259 257 258 258 256 256 258 260 262 268
227 227 230 237 239 239 242 238 234 237 241 239 236 234 232 236 237 234 231 233 235 235 237 242 245 248 248 251 255 255 255 255 250 250 251 254 261 261 259 260 262 265 264 265 268 269 268 266 261 260 259 258 258 259 257 257 256 257 254 257 259 259 260
233 234 nan nan nan nan nan nan nan nan 252 252 250 247 244 244 247 248 247 245 243 241 240 243 246 248 250 248 248 253 257 260 263 260 254 252 255 261 262 261 262 263 264 267 269 270 269 267 266 264 263 262 261 262 260 260 260 253 253 249 253 253 253
241 244 243 nan nan nan nan nan nan nan nan nan 251 248 248 248 248 251 252 250 248 245 243 245 247 250 251 251 251 255 256 258 261 262 260 255 253 255 259 260 259 260 263 265 268 270 269 267 267 266 267 267 267 266 264 261 257 255 252 253 246 245 247
245 249 251 nan nan nan nan nan nan nan nan nan nan nan 248 250 251 250 249 250 253 253 251 250 250 251 253 254 253 253 255 258 261 263 264 263 260 258 258 260 259 260 262 266 266 266 265 264 263 264 267 268 269 269 266 263 258 255 258 257 249 245 251
249 250 252 nan nan nan nan nan nan nan nan nan nan nan nan 246 248 250 249 250 252 254 253 250 251 253 256 257 257 258 258 257 256 256 255 256 256 257 255 256 258 260 263 263 263 262 263 263 265 266 265 265 262 nan nan nan 252 248 246 248 251 252 255
251 254 nan nan nan nan nan nan nan nan nan nan nan nan nan nan nan nan nan nan 247 246 248 252 252 252 253 256 258 258 257 256 255 255 254 253 254 254 254 254 253 251 250 252 258 263 263 263 263 263 262 261 259 nan nan nan 254 251 248 248 253 259 261
nan nan nan 256 nan nan nan nan nan nan nan nan nan nan nan nan nan nan nan nan nan nan nan 246 249 nan nan nan nan 258 259 259 257 256 253 252 252 252 253 253 254 253 251 253 253 256 260 261 259 257 nan nan nan 255 nan 253 252 251 250 250 254 256 255
254 nan nan nan nan nan nan nan nan nan nan nan nan nan nan nan nan nan nan nan nan nan nan 244 nan nan nan nan nan nan nan nan nan 257 258 257 255 254 252 250 251 254 254 nan nan 255 252 nan nan nan nan nan 254 nan nan nan nan nan nan nan nan nan nan
257 nan nan nan nan nan nan nan nan nan nan nan nan nan nan nan nan nan nan nan nan nan nan nan 247 nan nan nan nan nan nan nan nan nan 260 259 258 257 nan nan nan nan nan nan nan nan nan nan nan nan nan nan nan nan nan nan nan nan nan nan nan nan nan
263 260 257 255 nan nan nan nan nan nan nan nan nan nan nan nan nan nan nan nan nan nan nan nan nan nan nan nan nan nan nan nan nan nan nan nan nan nan nan nan nan nan nan nan nan nan nan nan nan nan nan nan nan nan nan nan nan nan nan nan nan nan nan
265 264 262 260 259 257 nan nan nan nan nan nan nan nan nan nan nan nan nan nan nan nan nan nan nan nan nan nan nan nan nan nan nan nan nan nan nan nan nan nan nan nan nan nan nan nan nan nan nan nan nan nan nan nan nan nan nan nan nan nan nan nan nan